STARLINK-11601, 63110

Orbit data source: Space-Track

STARLINK-11601, 63110 is a payload satellite owned by SpaceX/Seattle (US) in LEO that was launched on Thu, 27 Feb 2025 UTC via an FALCON 9 launch vehicle from the Air Force Eastern Test Range (AFETR). Payload-class satellites include a variety of spacecraft equipped with specific instruments for various scientific and technological missions. These include communications satellites like Starlink; space stations such as the ISS; scientific satellites like the Hubble; Earth observation satellites from companies like Planet Labs, Umbra, and HawkEye 360; GPS; miniature CubeSats for education and research; and military/defense satellites.

Loading next visibility...
Identifier
63110, 2025-039G
Orbit
LEO
Country
Flag of USUS
Related business
Manufacturer
SpaceX/Seattle
Mission
Operational Commercial Communications
Bus & Motor
STARLINK V2MD, Unknown motor
Mass
960 kg wet, ~910 kg dry
Launch date (UTC)
2025-02-27 (11 months ago)
Launch vehicle
FALCON 9
Launch site
Air Force Eastern Test Range (AFETR)
Object type
Payload
Rocket body
Debris
Shape & HBR
Box + 2 Pan, 18.1 m
Radar Cross Section
36.964 m², Large (>1 m²)

Expand to show TLE details & history
Last TLE update: 9 hours ago

TLE from 9 hours ago
0 STARLINK-11601
1 63110U 25039G   26035.48708490  .00253690  00000-0  19156-2 0  9995
2 63110  43.0007  76.9719 0001987 272.9123  87.1517 15.70904698 54396
Epoch: 2026-02-04T11:41Z
TLE epoch observation values (Epoch: 2026-02-04T11:41:24.135Z)
Latitude
-0.00003°
Longitude
126.96834°
Altitude
356.015 km
Speed
7.697 km/s
True Right ascension
05h 07m 53s
True Declination
0° 00' 00"
Sunlit
Object was in full shadow at epoch
Visualization orbit readout
Latitude
Unknown
Longitude
Unknown
Altitude
Unknown
Speed
Unknown
Apparent Right ascension
Unknown
Apparent Declination
Unknown
Sunlit
N/A
Visualization observer readout
Local Sidereal Time
22:21:35
Azimuth
Unknown
Elevation
Unknown
Doppler factor
Unknown
Orbital elements
Apogee altitude
359.63 km
Perigee altitude
356.953 km
Semi-major axis
6,736.429 km
Eccentricity
0.0002
Inclination
43.0007°
RAAN
76.9719°
Arg. of periapsis
272.9123°
True anomaly
87.17444°
Mean anomaly
87.1517°
Eccentric anomaly
87.16307°
Mean motion
3.92553 °/min
Orbital period
91.71 mins
BSTAR
0.0019156
Loading maneuver chart data...
Computing Atmospheric mass density...
Loading historical data...
Loading historical data...
Loading historical data...
Loading historical data...
Loading historical data...
Loading historical data...
Loading historical data...

Documentation

Showing up to 5 results
|